sat.trackr.live / text

‹ back to catalog

STARLINK-5167

NORAD 54058 · 2022-136H

PAYLOAD ACTIVE UNKNOWN

§ Identity

Operator
Country
US
Launch date
2022-10-20
Launch site
AFETR
Launch vehicle
Mass (kg)
RCS (m²)

Purposes: comms

External: N2YO · Heavens-Above · Gunter

§ Orbital elements

Epoch: 2026-05-24T23:55:42.763872Z

Period
95.44 min
Inclination
53.2148°
Eccentricity
0.0001200
Mean motion
15.08834858 rev/d
Perigee alt
538.9 km
Apogee alt
540.6 km
Semi-major
6,917.9 km
B*
1.3303e-4
RAAN
1.5721°
Arg perigee
93.9747°
Mean anomaly
266.1383°
Rev number
19,836

§ Raw data

STARLINK-51671 54058U 22136H   26144.99702273  .00001830  00000+0  13303-3 0  99962 54058  53.2148   1.5721 0001200  93.9747 266.1383 15.08834858198361

JSON: /api/v1/satellites/54058 · /tle

For live sub-satellite position, see the globe view (requires WebGL).

§ Visibility from observer

Set your observer location to see the next 7 days of passes ≥ 10°. The values pass through the URL so the page stays shareable.

No JS? Fill the form by hand. The geolocation button needs JavaScript.